Portada
METAR-TAF:

METAR-TAF

Aeropuertos :

Aeropuerto Capitán Av. Selin Zeitun Lopez

Riberalta, Bolivia

latitud: 11-00S, longitud: 066-07W, altitud: 141 m

Observación

El informe se hizo hace 11 horas y 12 minutos, a las 16:00 UTC
Viento 4 kt del sur
Temperatura 29°C
Humedad 74%
Presión 1016 hPa
Visibilidad 10 km o más
Escasas nubes a una altura de 1700 ft
Nubes dispersas a una altura de 8000 ft

METAR: SLRI 311600Z 17004KT 9999 FEW017 SCT080 29/24 Q1016

Hora: 23:12 (03:12 UTC)


TAF: falta

Observaciones y pronósticos meteorológicos de más de 4000 aeropuertos (mensajes METAR y TAF).

Los puntos amarillos y rojos representan las estaciones disponibles.

Ponga el ratón en el punto deseado para ver el nombre de la estación.

Haga clic para ver las observaciones y los pronósticos meteorológicos.

Para cambiar el mapa : haga clic en los botones verdes con una cruz de color negro para hacer un zoom, en el botón verde con un guión para alejar o en las flechas verdes para mapas adyacentes.


METAR-TAF: